Regional Weather Roundup
Issued by NWS

Home | Current Version | Previous Version | Graphics & Text | Print | Product List | Glossary On
Versions: 1 2 3 4 5 6 7 8 9 10 11 12 13 14 15 16 17 18 19 20 21 22 23 24 25 26 27 28 29 30 31 32 33 34 35 36 37 38 39 40 41 42 43 44 45 46 47 48 49 50
032
ASUS45 KSLC 251510
RWRUT

UTAH REGIONAL WEATHER ROUNDUP
NATIONAL WEATHER SERVICE SALT LAKE CITY UT
900 AM MDT WED MAY 25 2016

UTZ001>011-023>025-251600-

NORTHERN UTAH

CITY           SKY/WX    TMP DP  RH WIND       PRES   REMARKS
BRIGHAM CITY     N/A     50  44  77 CALM      30.02S
HILL AFB       PTSUNNY   53  42  67 E5        30.03R
LOGAN          CLOUDY    49  43  80 S6        30.02S
OGDEN          CLOUDY    54  42  64 S8        30.02R
PROVO AIRPORT  MOSUNNY   55  36  47 SE6       30.03S
SALT LAKE CITY PTSUNNY   60  41  49 CALM      30.02R
VERNAL         SUNNY     51  37  58 SE3       30.05S
WENDOVER       CLOUDY    54  37  54 SE7       30.04R
HEBER CITY     MOSUNNY   45  37  76 CALM      30.04F
WEST JORDAN    CLOUDY    52  41  66 S7        30.03R

$$

UTZ012>022-026-027-251600-

SOUTHERN/CENTRAL UTAH

CITY           SKY/WX    TMP DP  RH WIND       PRES   REMARKS
BRYCE CANYON   SUNNY     47  26  44 NE3       30.15R
CEDAR CITY     SUNNY     55  29  36 CALM      30.05S
DELTA          SUNNY     52  34  50 CALM      30.04S
HANKSVILLE     SUNNY     57  27  30 CALM      30.07R
MILFORD        SUNNY     56  27  32 S13       30.03S
MOAB/CYNLANDS  SUNNY     65  28  24 VRB6      30.02S
PRICE          SUNNY     53  29  39 SE8       30.06S
ST GEORGE      MOSUNNY   63  27  25 SE6       30.02R

$$

REGIONAL REPORTS     COLORADO/ARIZONA

CITY           SKY/WX    TMP DP  RH WIND       PRES   REMARKS
CRAIG, CO      SUNNY     53  37  54 N5        30.07S
GRAND JUNCTION SUNNY     60  26  27 NE3       30.05S
RIFLE          SUNNY     57  33  40 NE3       30.07S
MONTROSE       SUNNY     59  25  27 S3        30.11S
CORTEZ         SUNNY     58  25  28 CALM      30.14S
PAGE, AZ       SUNNY     61  22  22 NW3       30.05R
GRAND CANYON   SUNNY     53  18  25 SW12      30.13R
KINGMAN        SUNNY     62  26  25 W5        30.01R
FLAGSTAFF      SUNNY     51  25  36 SW14G21   30.14S

$$

REGIONAL REPORTS    NEVADA/IDAHO/WYOMING

CITY           SKY/WX    TMP DP  RH WIND       PRES   REMARKS
LAS VEGAS, NV  MOSUNNY   66  37  34 CALM      29.92R
ELY            SUNNY     43  37  79 S8        30.08R
ELKO           CLOUDY    47  41  80 CALM      30.06R
POCATELLO, ID  MOSUNNY   53  42  66 SW15      30.01R
BURLEY         MOSUNNY   55  41  59 W16G23    29.99S
EVANSTON, WY   MOSUNNY   44  35  70 SW13      30.07R
ROCK SPRINGS   SUNNY     48  33  56 SW15      30.05S
KEMMERER         N/A     45  37  76 W9        30.07R

$$




USA.gov is the U.S. government's official web portal to all federal, state and local government web resources and services.